Powrót do katalogu

STARLINK-30855

AktywnyŁącznośćVLEO
NORAD 58222·PAYLOAD·🇺🇸 United States

Wystrzelony Nov 3, 2023 z Cape Canaveral Space Force Station

Loading…

Następne Przeloty (najbliższe 24 godziny)

TLE

ŚwieżeSource: CelesTrak SupGP

Epoka: Sep 15, 2026, 03:19 UTC

1 58222C 23170S   26258.13868056  .00014782  00000+0  53538-3 0  2588
2 58222  43.0017 204.5964 0001198 268.9679 313.0134 15.27574134    17

Śledź STARLINK-30855 w czasie rzeczywistym z AllMySat

Download on the App Store